TIANWANG 1C (TW-1C)
1 40926U 15051B   19261.84934567  .00010109  00000-0  13960-3 0  9991
2 40926  97.1265 307.9506 0008741  41.1873  74.9320 15.57318932224497
TIANWANG 1B (TW-1B)
1 40927U 15051C   19261.83452227  .00009405  00000-0  13828-3 0  9999
2 40927  97.1298 307.1206 0009242  50.1019  37.4803 15.55633400224333
TIANWANG 1A (TW-1A)
1 40928U 15051D   19261.76861394  .00002341  00000-0  58261-4 0  9994
2 40928  97.1390 291.0236 0012575  95.8566 353.6898 15.41190098223351
LAPAN A2
1 40931U 15052B   19260.05938163  .00000679  00000-0  53744-5 0  9993
2 40931   5.9940 132.0905 0013665 353.3940   6.6007 14.76613531214647
LQSAT
1 40958U 15057A   19261.80712143 -.00000002 +00000-0 +73752-5 0  9991
2 40958 097.8909 328.4789 0016991 308.4627 051.5056 14.73088736212371
CHUBUSAT 2
1 41338U 16012B   19261.44662641 +.00000294 +00000-0 +16126-4 0  9996
2 41338 031.0030 281.6478 0013812 292.1897 067.7272 15.00179303196700
CHUBUSAT 3
1 41339U 16012C   19261.47196701  .00000277  00000-0  14755-4 0  9996
2 41339  31.0113 279.4614 0013798 300.9077  59.0209 15.00352662196706
OUFTI-1
1 41458U 16025C   19261.48520159  .00001073  00000-0  58038-4 0  9998
2 41458  98.1005 352.9969 0166908  48.7727 312.7746 15.06018703186382
E-STAR-2
1 41459U 16025D   19261.85609572  .00001222  00000-0  65976-4 0  9992
2 41459  98.1018 352.9949 0167848  49.0286 312.5301 15.05650330186419
AAUSAT 4
1 41460U 16025E   19261.84776020  .00001292  00000-0  68034-4 0  9991
2 41460  98.0957 354.4618 0157730  40.7909 320.4960 15.07608379186553
NUSAT 1
1 41557U 16033B   19261.90017825 +.00000873 +00000-0 +35296-4 0  9993
2 41557 097.4159 348.8632 0013010 338.6498 021.4196 15.27372855184167
BEESAT 4
1 41619U 16040W   19261.74846581  .00000961  00000-0  43398-4 0  9991
2 41619  97.3590 322.2231 0012797  64.3596 295.8961 15.23297726167873
PRATHAM
1 41783U 16059A   19261.93061646 +.00000018 +00000-0 +12695-4 0  9994
2 41783 098.0585 319.4332 0034932 094.0416 266.4780 14.63009082159034
ALSAT 1N
1 41789U 16059G   19261.77220025  .00000039  00000-0  16446-4 0  9991
2 41789  98.0612 321.4748 0029556  83.5723 276.8840 14.64261506159129
NAYIF 1
1 42017U 17008BX  19261.12952021 +.00001046 +00000-0 +43846-4 0  9991
2 42017 097.3954 327.2532 0005767 191.7692 168.3413 15.25710999143863
MAX VALIER SAT
1 42778U 17036P   19261.69922004  .00000601  00000-0  29220-4 0  9992
2 42778  97.3456 317.3002 0010665 259.5845 100.4190 15.22133013124234
